Location: Unspecified
(0.0000°N, 0.0000°E)
Time: 09:20:14
(UTC+00:00)

Explorer 11/Cluster Stage 4 - Pass Details

Date: 16 July 2020
Orbit: 467 x 1259 km, 28.8° (Epoch: 03 August)

Event Time Altitude Azimuth Distance (km) Brightness Sun altitude
Rises 05:01:35 0° 231° (SW) 2,629 - -15.0°
Reaches altitude 10° 05:03:58 10° 225° (SW) 1,677 - -14.5°
Exits shadow 05:05:23 21° 216° (SW) 1,136 6.9 -14.1°
Maximum altitude 05:07:34 46° 150° (SSE) 631 6.1 -13.6°
Drops below altitude 10° 05:11:03 10° 75° (ENE) 1,608 9.7 -12.8°
Sets 05:13:16 0° 69° (ENE) 2,506 11.4 -12.3°
